sat.trackr.live / text

‹ back to catalog

STARLINK-32089

NORAD 59687 · 2024-086F

PAYLOAD ACTIVE UNKNOWN

§ Identity

Operator
Country
US
Launch date
2024-05-08
Launch site
AFETR
Launch vehicle
Mass (kg)
RCS (m²)

Purposes: comms

External: N2YO · Heavens-Above · Gunter

§ Orbital elements

Epoch: 2026-05-24T06:31:56.764992Z

Period
94.27 min
Inclination
43.0003°
Eccentricity
0.0001411
Mean motion
15.27576563 rev/d
Perigee alt
482.1 km
Apogee alt
484.0 km
Semi-major
6,861.2 km
B*
2.4992e-4
RAAN
352.8689°
Arg perigee
270.6192°
Mean anomaly
89.4498°
Rev number
11,567

§ Raw data

STARLINK-320891 59687U 24086F   26144.27218478  .00006621  00000+0  24992-3 0  99942 59687  43.0003 352.8689 0001411 270.6192  89.4498 15.27576563115671

JSON: /api/v1/satellites/59687 · /tle

For live sub-satellite position, see the globe view (requires WebGL).

§ Visibility from observer

Set your observer location to see the next 7 days of passes ≥ 10°. The values pass through the URL so the page stays shareable.

No JS? Fill the form by hand. The geolocation button needs JavaScript.